軌道要素
Epoch 2015 Dec. 4.0 TT = JDT 2457360.5
T 2015 Dec. 9.79811 TT MPCW
q 2.1006360 (2000.0) P Q
z +0.0059021 Peri. 87.80685 -0.02251717 -0.99155684
Node 8.12226 +0.03399031 -0.12842062
e 0.9876019 Incl. 64.67027 +0.99916847 -0.01797694
From 2826 observations 2014 Sept. 2-2017 Feb. 25, mean residual 0".6.
Nongravitational parameters A1 = +8.67, A2 = +1.7583.
|